CFBEE CYPS-CYLI

Flight info

Callsign CFBEE
Flight time N/A
Altitude 7000
Route DCT
Aircraft C208/L-SDFGR/C

Departure

Time 2026-04-15 15:17
Airport Pemberton Regional Airport (CYPS)

Arrival

Time N/A
Airport Lillooet Airport (CYLI)
Time Latitude Longitude Altitude Speed Heading
2026-04-15 15:14 50.30308 -122.73975 660 ft 0 kts 84°
2026-04-15 15:15 50.30285 -122.73959 660 ft 9 kts 229°
2026-04-15 15:16 50.30216 -122.74007 659 ft 13 kts 231°
2026-04-15 15:16 50.30198 -122.74195 657 ft 19 kts 276°
2026-04-15 15:16 50.30187 -122.74234 657 ft 0 kts 84°
2026-04-15 15:16 50.30192 -122.74170 657 ft 26 kts 84°
2026-04-15 15:17 50.30232 -122.73604 662 ft 76 kts 83°
2026-04-15 15:17 50.30319 -122.72647 788 ft 98 kts 79°
2026-04-15 15:17 50.30456 -122.71567 1082 ft 102 kts 81°
2026-04-15 15:17 50.30499 -122.70433 1392 ft 106 kts 83°
2026-04-15 15:18 50.30945 -122.69607 1717 ft 106 kts
2026-04-15 15:18 50.31658 -122.69740 2033 ft 106 kts 351°
2026-04-15 15:18 50.32405 -122.69884 2318 ft 111 kts 351°
2026-04-15 15:18 50.33194 -122.70046 2599 ft 117 kts 351°
2026-04-15 15:19 50.34016 -122.70219 2877 ft 121 kts 351°
2026-04-15 15:19 50.34858 -122.70401 3157 ft 124 kts 351°
2026-04-15 15:19 50.35725 -122.70636 3419 ft 126 kts 345°
2026-04-15 15:19 50.36579 -122.70940 3638 ft 129 kts 346°
2026-04-15 15:20 50.37473 -122.71076 3841 ft 131 kts 12°
2026-04-15 15:20 50.38301 -122.70499 4032 ft 132 kts 43°
2026-04-15 15:20 50.38666 -122.69208 4270 ft 132 kts 79°
2026-04-15 15:20 50.38755 -122.67780 4570 ft 132 kts 86°
2026-04-15 15:21 50.38780 -122.66347 4933 ft 130 kts 91°
2026-04-15 15:21 50.38763 -122.64989 5430 ft 121 kts 90°
2026-04-15 15:21 50.38749 -122.63744 5935 ft 107 kts 90°
2026-04-15 15:21 50.38744 -122.62656 6389 ft 94 kts 89°
2026-04-15 15:22 50.38743 -122.61665 6669 ft 92 kts 90°
2026-04-15 15:22 50.38675 -122.60644 6906 ft 96 kts 104°
2026-04-15 15:22 50.38487 -122.59658 7239 ft 89 kts 109°
2026-04-15 15:22 50.38239 -122.58793 7488 ft 92 kts 116°
2026-04-15 15:23 50.38130 -122.57753 7635 ft 104 kts 74°
2026-04-15 15:23 50.38508 -122.56772 7835 ft 111 kts 54°
2026-04-15 15:23 50.38945 -122.55691 8030 ft 123 kts 56°
2026-04-15 15:23 50.39417 -122.54563 8317 ft 125 kts 54°
2026-04-15 15:24 50.39910 -122.53398 8592 ft 131 kts 52°
2026-04-15 15:24 50.40474 -122.52229 8864 ft 138 kts 53°
2026-04-15 15:24 50.40986 -122.50940 9131 ft 141 kts 57°
2026-04-15 15:24 50.41493 -122.49608 9398 ft 144 kts 57°
2026-04-15 15:25 50.42017 -122.48240 9652 ft 148 kts 57°
2026-04-15 15:25 50.42553 -122.46846 9890 ft 150 kts 57°
2026-04-15 15:25 50.43095 -122.45437 10127 ft 151 kts 57°
2026-04-15 15:25 50.43635 -122.44030 10356 ft 150 kts 57°
2026-04-15 15:26 50.41198 -122.50381 9239 ft 0 kts 57°
2026-04-15 15:26 50.39993 -122.53649 9239 ft 1869 kts 57°
2026-04-15 15:26 50.40130 -122.53299 9083 ft 172 kts 57°
2026-04-15 15:26 50.40768 -122.51673 9132 ft 174 kts 56°
2026-04-15 15:27 50.41401 -122.50073 9252 ft 171 kts 57°
2026-04-15 15:27 50.42023 -122.48484 9376 ft 171 kts 57°
2026-04-15 15:27 50.42610 -122.46984 9500 ft 0 kts 57°
2026-04-15 15:27 50.38059 -122.57930 9502 ft 0 kts 57°
2026-04-15 15:28 50.38457 -122.56946 7822 ft 147 kts 56°
2026-04-15 15:28 50.38983 -122.55628 8158 ft 142 kts 57°
2026-04-15 15:28 50.39497 -122.54329 8426 ft 140 kts 56°